DW3015 Weather Reports


time (UTC)temp
F
wind
direction
speed
knots
gust
knots
rain 1hr
in
rain 24hr
in
rain mn
in
humidity
%
barometer
mb
20260508013009 66 182 0.0 0.0 0.00 0.00 0.00 45 1007.8
20260508011509 67 176 0.0 0.0 0.00 0.00 0.00 44 1007.7
20260508010010 68 182 0.0 0.0 0.00 0.00 0.00 43 1007.6
20260508004507 69 200 0.0 0.0 0.00 0.00 0.00 42 1007.6
20260508003007 70 169 0.0 0.0 0.00 0.00 0.00 40 1007.5
20260508001507 71 170 0.0 0.0 0.00 0.00 0.00 39 1007.5
20260508000006 73 184 0.0 0.0 0.00 0.00 0.00 36 1007.6
20260507234506 73 199 0.0 0.0 0.00 0.00 0.00 35 1007.7
20260507233003 73 211 0.0 0.0 0.00 0.00 0.00 34 1007.9
20260507231501 73 191 0.0 0.0 0.00 0.00 0.00 36 1008.1
20260507230100 73 209 0.0 0.0 0.00 0.00 0.00 35 1008.2
20260507224600 74 190 0.0 0.0 0.00 0.00 0.00 35 1008.3
20260507223113 74 200 0.0 0.0 0.00 0.00 0.00 33 1008.5
20260507221556 74 225 0.0 0.0 0.00 0.00 0.00 35 1008.6
20260507220053 74 211 0.0 0.0 0.00 0.00 0.00 36 1008.9
20260507214551 73 197 0.0 0.0 0.00 0.00 0.00 36 1008.9
20260507213050 73 201 0.0 0.0 0.00 0.00 0.00 36 1009.1
20260507211557 72 198 0.0 0.0 0.00 0.00 0.00 37 1009.2
20260507210104 72 192 0.0 0.0 0.00 0.00 0.00 37 1009.3
20260507204547 72 211 0.0 0.0 0.00 0.00 0.00 40 1009.7
20260507203043 72 201 0.0 0.0 0.00 0.00 0.00 39 1009.8
20260507201540 72 202 0.0 0.0 0.00 0.00 0.00 39 1010.2
20260507200049 71 213 0.0 0.0 0.00 0.00 0.00 39 1010.3
20260507194548 71 211 0.0 0.0 0.00 0.00 0.00 39 1010.5
20260507193034 70 202 0.0 0.0 0.00 0.00 0.00 40 1010.7
20260507191532 70 198 0.0 0.0 0.00 0.00 0.00 42 1010.9
20260507190040 69 188 0.0 0.0 0.00 0.00 0.00 43 1011.1
20260507184533 69 188 0.0 0.0 0.00 0.00 0.00 42 1011.4
20260507183024 69 228 0.0 0.0 0.00 0.00 0.00 45 1011.6
20260507181523 68 217 0.0 0.0 0.00 0.00 0.00 43 1011.9
20260507180022 67 167 0.0 0.0 0.00 0.00 0.00 44 1012.2
20260507174518 67 227 0.0 0.0 0.00 0.00 0.00 43 1012.4
20260507173034 66 232 0.0 0.0 0.00 0.00 0.00 46 1012.7
20260507171512 66 187 0.0 0.0 0.00 0.00 0.00 47 1013.0
20260507170016 65 213 0.0 0.0 0.00 0.00 0.00 47 1013.1
20260507164519 65 220 0.0 0.0 0.00 0.00 0.00 50 1013.4
20260507163004 64 226 0.0 0.0 0.00 0.00 0.00 50 1013.8
20260507161503 64 201 0.0 0.0 0.00 0.00 0.00 51 1014.0
20260507160001 63 227 0.0 0.0 0.00 0.00 0.00 51 1014.0
20260507154601 62 243 0.0 0.0 0.00 0.00 0.00 53 1014.1
20260507153058 62 259 0.0 0.0 0.00 0.00 0.00 54 1014.2
20260507151554 61 254 0.0 0.0 0.00 0.00 0.00 55 1014.6
20260507150053 60 247 0.0 0.0 0.00 0.00 0.00 57 1014.6
20260507144550 60 205 0.0 0.0 0.00 0.00 0.00 56 1014.6
20260507143048 59 196 0.0 0.0 0.00 0.00 0.00 58 1014.6
20260507141544 58 227 0.0 0.0 0.00 0.00 0.00 60 1014.7
20260507140044 57 225 0.0 0.0 0.00 0.00 0.00 64 1014.7
20260507134538 56 219 0.0 0.0 0.00 0.00 0.00 66 1014.6
20260507133034 54 229 0.0 0.0 0.00 0.00 0.00 69 1014.6
20260507131530 51 219 0.0 0.0 0.00 0.00 0.00 75 1014.9
20260507130033 50 218 0.0 0.0 0.00 0.00 0.00 78 1015.1
20260507124530 48 187 0.0 0.0 0.00 0.00 0.00 82 1015.1
20260507123022 46 215 0.0 0.0 0.00 0.00 0.00 83 1015.2
20260507121519 45 209 0.0 0.0 0.00 0.00 0.00 83 1015.2
20260507120019 44 225 0.0 0.0 0.00 0.00 0.00 83 1015.1
20260507114518 44 0.0 0.0 0.00 0.00 0.00 83 1015.0
20260507113035 44 0.0 0.0 0.00 0.00 0.00 83 1015.0
20260507111518 44 0.0 0.0 0.00 0.00 0.00 83 1015.0
20260507110017 44 0.0 0.0 0.00 0.00 0.00 82 1014.9
20260507104515 43 0.0 0.0 0.00 0.00 0.00 82 1014.9
20260507103018 43 0.0 0.0 0.00 0.00 0.00 82 1014.9
20260507101517 43 0.0 0.0 0.00 0.00 0.00 81 1015.1
20260507100012 44 0.0 0.0 0.00 0.00 0.00 80 1015.3
20260507094508 44 0.0 0.0 0.00 0.00 0.00 79 1015.3
20260507093007 44 0.0 0.0 0.00 0.00 0.00 78 1015.3
20260507091506 45 0.0 0.0 0.00 0.00 0.00 77 1015.3
20260507090004 45 0.0 0.0 0.00 0.00 0.00 77 1015.4
20260507084506 45 0.0 0.0 0.00 0.00 0.00 77 1015.4
20260507083002 44 0.0 0.0 0.00 0.00 0.00 77 1015.6
20260507081503 45 0.0 0.0 0.00 0.00 0.00 76 1015.6
20260507080100 45 0.0 0.0 0.00 0.00 0.00 76 1015.6
20260507074603 45 212 0.0 0.0 0.00 0.00 0.00 76 1015.7
20260507073100 45 211 0.0 0.0 0.00 0.00 0.00 76 1015.8
20260507071555 45 211 0.0 0.0 0.00 0.00 0.00 75 1016.0
20260507070054 45 205 0.0 0.0 0.00 0.00 0.00 75 1016.0
20260507064554 45 205 0.0 0.0 0.00 0.00 0.00 74 1016.1
20260507063050 45 204 0.0 0.0 0.00 0.00 0.00 73 1016.3
20260507061546 46 202 0.0 0.0 0.00 0.00 0.00 71 1016.5
20260507060043 47 199 0.0 0.0 0.00 0.00 0.00 70 1016.5
20260507054543 47 215 0.0 0.0 0.00 0.00 0.00 70 1016.7
20260507053042 47 249 0.0 0.0 0.00 0.00 0.00 70 1016.5
20260507051541 47 284 0.0 0.0 0.00 0.00 0.00 69 1016.5
20260507050042 47 284 0.0 0.0 0.00 0.00 0.00 70 1016.5
20260507044539 47 284 0.0 0.0 0.00 0.00 0.00 68 1016.5
20260507043053 47 284 0.0 0.0 0.00 0.00 0.00 68 1016.5
20260507041537 48 284 0.0 0.0 0.00 0.00 0.00 66 1016.5
20260507040037 48 284 0.0 0.0 0.00 0.00 0.00 64 1016.7
20260507034538 48 284 0.0 0.0 0.00 0.00 0.00 63 1016.7
20260507033038 48 284 0.0 0.0 0.00 0.00 0.00 61 1016.8
20260507031539 48 284 0.0 0.0 0.00 0.00 0.00 58 1016.8
20260507030035 49 303 0.0 0.0 0.00 0.00 0.00 57 1016.6
20260507024534 49 303 0.0 0.0 0.00 0.00 0.00 58 1016.5
20260507023035 49 303 0.0 0.0 0.00 0.00 0.00 57 1016.5
20260507021537 50 331 0.0 0.0 0.00 0.00 0.00 53 1016.3
20260507020046 51 331 0.0 0.0 0.00 0.00 0.00 49 1016.2
20260507014535 52 331 0.0 0.0 0.00 0.00 0.00 47 1016.1